Location: Newark
(52.4787°S, 179.0532°W)
Time: 11:21:53
(UTC+00:00)

Transit 2A Rocket - Pass Details

Date: 25 November 2019
Orbit: 594 x 909 km, 66.7° (Epoch: 12 December)

Event Time Altitude Azimuth Distance (km) Brightness Sun altitude
Rises 01:02:51 0° 237° (WSW) 3,538 8.4 54.6°
Reaches altitude 10° 01:05:59 10° 222° (SW) 2,618 7.8 54.4°
Maximum altitude 01:10:40 22° 172° (S) 1,905 7.0 53.9°
Drops below altitude 10° 01:15:20 10° 122° (ESE) 2,609 7.5 53.5°
Sets 01:18:27 0° 107° (ESE) 3,522 8.1 53.2°
